Weather History for Mount Holly, NJ

Change the Weather History Date:

Thursday, January 24, 2013

  Actual Average (KWRI) Record (KWRI)
Temperature  
Mean Temperature 18 °F -  
Max Temperature 25 °F 36 °F 62 °F (1999)
Min Temperature 12 °F 20 °F 3 °F (2005)
Degree Days  
Heating Degree Days 46    
Moisture  
Dew Point 2 °F    
Average Humidity 51    
Maximum Humidity 84    
Minimum Humidity 30    
Precipitation  
Precipitation 0.00 in - - ()
Sea Level Pressure  
Sea Level Pressure 30.29 in    
Wind  
Wind Speed 5 mph (NNW)    
Max Wind Speed 16 mph    
Max Gust Speed 26 mph    
Visibility 10 miles    
Events      
Averages and records for this station are not official NWS values.
T = Trace of Precipitation, MM = Missing Value Source: NWS Daily Summary

Daily Weather History Graph

Daily Weather History Graph

Search for Another Location

Airport:

Trip Planner

Search our weather history database for the weather conditions in past years. The results will help you decide how hot, cold, wet, or windy it might be!

Date:

Astronomy

Jan. 24, 2013 Rise Set
Actual Time 7:14 AM EST 5:09 PM EST
Civil Twilight 6:45 AM EST 5:38 PM EST
Nautical Twilight 6:12 AM EST 6:11 PM EST
Astronomical Twilight 5:40 AM EST 6:43 PM EST
Moon 3:09 PM EST (1/24) 5:09 AM EST (1/24)
Length of Visible Light 10h 53m
Length of Day
9h 55m
Waxing Gibbous, 94% of the Moon is Illuminated
Jan 24
Waxing Gibbous
Jan 26
Full
Feb 3
Last Quarter
Feb 10
New
Feb 17
First Quarter

Hourly Weather History & Observations

Time (EST) Temp. Windchill Dew Point Humidity Pressure Visibility Wind Dir Wind Speed Gust Speed Precip Events Conditions
12:54 AM 12.9 °F - 7.0 °F 77% 30.17 in 10.0 mi Calm Calm - N/A   Overcast
1:54 AM 12.9 °F - 8.1 °F 81% 30.16 in 9.0 mi Calm Calm - N/A   Overcast
2:54 AM 12.9 °F - 8.1 °F 81% 30.15 in 7.0 mi Calm Calm - N/A   Overcast
3:54 AM 12.9 °F - 9.0 °F 84% 30.15 in 7.0 mi Calm Calm - N/A   Overcast
4:54 AM 14.0 °F - 8.1 °F 77% 30.15 in 8.0 mi Calm Calm - N/A   Overcast
5:54 AM 14.0 °F 8.2 °F 7.0 °F 74% 30.17 in 9.0 mi NNW 3.5 mph - N/A   Overcast
6:54 AM 15.1 °F 6.4 °F 7.0 °F 70% 30.19 in 10.0 mi NNW 5.8 mph - N/A   Overcast
7:54 AM 15.1 °F 4.2 °F 3.9 °F 61% 30.21 in 10.0 mi North 8.1 mph - N/A   Partly Cloudy
8:54 AM 17.1 °F 5.8 °F 3.9 °F 56% 30.23 in 10.0 mi NNW 9.2 mph - N/A   Clear
9:54 AM 19.0 °F 5.6 °F 3.0 °F 50% 30.27 in 10.0 mi NNW 13.8 mph - N/A   Clear
10:54 AM 21.9 °F 9.8 °F 1.9 °F 42% 30.28 in 10.0 mi NNW 12.7 mph 21.9 mph N/A   Clear
11:54 AM 21.9 °F 9.8 °F 1.0 °F 40% 30.27 in 10.0 mi NNW 12.7 mph 24.2 mph N/A   Clear
12:54 PM 24.1 °F 11.0 °F -0.9 °F 34% 30.28 in 10.0 mi NW 16.1 mph 24.2 mph N/A   Partly Cloudy
1:54 PM 24.1 °F 12.5 °F -0.0 °F 35% 30.29 in 10.0 mi NW 12.7 mph 19.6 mph N/A   Mostly Cloudy
2:54 PM 25.0 °F 13.1 °F -2.9 °F 30% 30.31 in 10.0 mi NW 13.8 mph 26.5 mph N/A   Mostly Cloudy
3:54 PM 24.1 °F 11.0 °F -2.9 °F 31% 30.34 in 10.0 mi NNW 16.1 mph 25.3 mph N/A   Clear
4:54 PM 23.0 °F 13.1 °F -2.0 °F 34% 30.37 in 10.0 mi NW 9.2 mph 17.3 mph N/A   Clear
5:54 PM 21.9 °F 11.7 °F -2.0 °F 35% 30.40 in 10.0 mi NNW 9.2 mph - N/A   Clear
6:54 PM 21.0 °F 14.6 °F -0.9 °F 38% 30.43 in 10.0 mi NW 4.6 mph - N/A   Clear
7:54 PM 19.9 °F - -0.0 °F 42% 30.44 in 10.0 mi Calm Calm - N/A   Clear
8:54 PM 19.9 °F - -0.9 °F 40% 30.45 in 10.0 mi Calm Calm - N/A   Clear
9:54 PM 19.9 °F 12.1 °F -0.0 °F 42% 30.45 in 10.0 mi Variable 5.8 mph - N/A   Clear
10:54 PM 19.9 °F 11.1 °F -0.9 °F 40% 30.45 in 10.0 mi NW 6.9 mph - N/A   Clear
11:54 PM 19.0 °F 7.5 °F -2.0 °F 40% 30.46 in 10.0 mi NW 10.4 mph - N/A   Clear